Location: Wien
(48.2082°N, 16.3738°E)
Time: 23:51:03
(UTC+02:00)

DOVE 4 - Pass Details

Date: 25 March 2019
Orbit: 587 x 804 km, 97.7° (Epoch: 23 April)

Event Time Altitude Azimuth Distance (km) Brightness Sun altitude
Rises 02:37:48 0° 20° (NNE) 2,941 ? -29.6°
Reaches altitude 10° 02:40:13 10° 30° (NNE) 1,999 ? -29.3°
Enters shadow 02:44:03 34° 92° (E) 1,007 ? -28.9°
